Time,TemperatureF,DewpointF,PressureIn,WindDirection,WindDirectionDegrees,WindSpeedMPH,WindSpeedGustMPH,Humidity,HourlyPrecipIn,Conditions,Clouds,dailyrainin,SoftwareType,DateUTC
2013-02-28 00:02:00,32.0,-99.9,-100.00,North,2,6.0,18.0,-999,-99.99,,,-99.99,,2013-02-28 05:02:00,
2013-02-28 00:12:00,32.0,-99.9,-100.00,North,2,6.0,18.0,-999,-99.99,,,-99.99,,2013-02-28 05:12:00,
2013-02-28 00:22:00,32.0,-99.9,-100.00,North,2,6.0,18.0,-999,-99.99,,,-99.99,,2013-02-28 05:22:00,
2013-02-28 00:32:00,32.0,-99.9,-100.00,North,2,6.0,18.0,-999,-99.99,,,-99.99,,2013-02-28 05:32:00,
2013-02-28 00:40:00,32.0,-99.9,-100.00,North,9,11.0,19.0,-999,-99.99,,,-99.99,,2013-02-28 05:40:00,
2013-02-28 01:02:00,32.0,-99.9,-100.00,North,9,11.0,19.0,-999,-99.99,,,-99.99,,2013-02-28 06:02:00,
2013-02-28 01:11:00,32.0,-99.9,-100.00,North,9,11.0,19.0,-999,-99.99,,,-99.99,,2013-02-28 06:11:00,
2013-02-28 01:22:00,32.0,-99.9,-100.00,North,9,11.0,19.0,-999,-99.99,,,-99.99,,2013-02-28 06:22:00,
2013-02-28 01:32:00,32.0,-99.9,-100.00,North,9,11.0,19.0,-999,-99.99,,,-99.99,,2013-02-28 06:32:00,
2013-02-28 01:40:00,31.0,-99.9,-100.00,North,6,11.0,18.0,-999,-99.99,,,-99.99,,2013-02-28 06:40:00,
2013-02-28 02:01:00,31.0,-99.9,-100.00,North,6,11.0,18.0,-999,-99.99,,,-99.99,,2013-02-28 07:01:00,
2013-02-28 02:11:00,31.0,-99.9,-100.00,North,6,11.0,18.0,-999,-99.99,,,-99.99,,2013-02-28 07:11:00,
2013-02-28 02:22:00,31.0,-99.9,-100.00,North,6,11.0,18.0,-999,-99.99,,,-99.99,,2013-02-28 07:22:00,
2013-02-28 02:32:00,31.0,-99.9,-100.00,North,6,11.0,18.0,-999,-99.99,,,-99.99,,2013-02-28 07:32:00,
2013-02-28 02:40:00,31.0,-99.9,-100.00,North,8,7.0,20.0,-999,-99.99,,,-99.99,,2013-02-28 07:40:00,
2013-02-28 03:01:00,31.0,-99.9,-100.00,North,8,7.0,20.0,-999,-99.99,,,-99.99,,2013-02-28 08:01:00,
2013-02-28 03:12:00,31.0,-99.9,-100.00,North,8,7.0,20.0,-999,-99.99,,,-99.99,,2013-02-28 08:12:00,
2013-02-28 03:22:00,31.0,-99.9,-100.00,North,8,7.0,20.0,-999,-99.99,,,-99.99,,2013-02-28 08:22:00,
2013-02-28 03:32:00,31.0,-99.9,-100.00,North,8,7.0,20.0,-999,-99.99,,,-99.99,,2013-02-28 08:32:00,
2013-02-28 03:40:00,31.0,-99.9,-100.00,North,0,9.0,16.0,-999,-99.99,,,-99.99,,2013-02-28 08:40:00,
2013-02-28 04:04:00,31.0,-99.9,-100.00,North,0,9.0,16.0,-999,-99.99,,,-99.99,,2013-02-28 09:04:00,
2013-02-28 04:12:00,31.0,-99.9,-100.00,North,0,9.0,16.0,-999,-99.99,,,-99.99,,2013-02-28 09:12:00,
2013-02-28 04:22:00,31.0,-99.9,-100.00,North,0,9.0,16.0,-999,-99.99,,,-99.99,,2013-02-28 09:22:00,
2013-02-28 04:32:00,31.0,-99.9,-100.00,North,0,9.0,16.0,-999,-99.99,,,-99.99,,2013-02-28 09:32:00,
2013-02-28 04:40:00,30.0,-99.9,-100.00,North,360,10.0,19.0,-999,-99.99,,,-99.99,,2013-02-28 09:40:00,
2013-02-28 05:02:00,30.0,-99.9,-100.00,North,360,10.0,19.0,-999,-99.99,,,-99.99,,2013-02-28 10:02:00,
2013-02-28 05:12:00,30.0,-99.9,-100.00,North,360,10.0,19.0,-999,-99.99,,,-99.99,,2013-02-28 10:12:00,
2013-02-28 05:22:00,30.0,-99.9,-100.00,North,360,10.0,19.0,-999,-99.99,,,-99.99,,2013-02-28 10:22:00,
2013-02-28 05:32:00,30.0,-99.9,-100.00,North,360,10.0,19.0,-999,-99.99,,,-99.99,,2013-02-28 10:32:00,
2013-02-28 05:40:00,31.0,-99.9,-100.00,North,8,10.0,20.0,-999,-99.99,,,-99.99,,2013-02-28 10:40:00,
2013-02-28 06:02:00,31.0,-99.9,-100.00,North,8,10.0,20.0,-999,-99.99,,,-99.99,,2013-02-28 11:02:00,
2013-02-28 06:12:00,31.0,-99.9,-100.00,North,8,10.0,20.0,-999,-99.99,,,-99.99,,2013-02-28 11:12:00,
2013-02-28 06:22:00,31.0,-99.9,-100.00,North,8,10.0,20.0,-999,-99.99,,,-99.99,,2013-02-28 11:22:00,
2013-02-28 06:32:00,31.0,-99.9,-100.00,North,8,10.0,20.0,-999,-99.99,,,-99.99,,2013-02-28 11:32:00,
2013-02-28 06:40:00,30.0,-99.9,-100.00,North,358,10.0,17.0,-999,-99.99,,,-99.99,,2013-02-28 11:40:00,
2013-02-28 07:02:00,30.0,-99.9,-100.00,North,358,10.0,17.0,-999,-99.99,,,-99.99,,2013-02-28 12:02:00,
2013-02-28 07:12:00,30.0,-99.9,-100.00,North,358,10.0,17.0,-999,-99.99,,,-99.99,,2013-02-28 12:12:00,
2013-02-28 07:22:00,30.0,-99.9,-100.00,North,358,10.0,17.0,-999,-99.99,,,-99.99,,2013-02-28 12:22:00,
2013-02-28 07:32:00,30.0,-99.9,-100.00,North,358,10.0,17.0,-999,-99.99,,,-99.99,,2013-02-28 12:32:00,
2013-02-28 07:40:00,28.0,-99.9,-100.00,North,350,8.0,17.0,-999,-99.99,,,-99.99,,2013-02-28 12:40:00,
2013-02-28 08:02:00,28.0,-99.9,-100.00,North,350,8.0,17.0,-999,-99.99,,,-99.99,,2013-02-28 13:02:00,
2013-02-28 08:12:00,28.0,-99.9,-100.00,North,350,8.0,17.0,-999,-99.99,,,-99.99,,2013-02-28 13:12:00,
2013-02-28 08:22:00,28.0,-99.9,-100.00,North,350,8.0,17.0,-999,-99.99,,,-99.99,,2013-02-28 13:22:00,
2013-02-28 08:32:00,28.0,-99.9,-100.00,North,350,8.0,17.0,-999,-99.99,,,-99.99,,2013-02-28 13:32:00,
2013-02-28 08:40:00,28.0,-99.9,-100.00,North,358,6.0,15.0,-999,-99.99,,,-99.99,,2013-02-28 13:40:00,
2013-02-28 09:02:00,28.0,-99.9,-100.00,North,358,6.0,15.0,-999,-99.99,,,-99.99,,2013-02-28 14:02:00,
2013-02-28 09:12:00,28.0,-99.9,-100.00,North,358,6.0,15.0,-999,-99.99,,,-99.99,,2013-02-28 14:12:00,
2013-02-28 09:22:00,28.0,-99.9,-100.00,North,358,6.0,15.0,-999,-99.99,,,-99.99,,2013-02-28 14:22:00,
2013-02-28 09:32:00,28.0,-99.9,-100.00,North,358,6.0,15.0,-999,-99.99,,,-99.99,,2013-02-28 14:32:00,
2013-02-28 09:40:00,28.0,-99.9,-100.00,North,8,10.0,21.0,-999,-99.99,,,-99.99,,2013-02-28 14:40:00,
2013-02-28 10:02:00,28.0,-99.9,-100.00,North,8,10.0,21.0,-999,-99.99,,,-99.99,,2013-02-28 15:02:00,
2013-02-28 10:11:00,28.0,-99.9,-100.00,North,8,10.0,21.0,-999,-99.99,,,-99.99,,2013-02-28 15:11:00,
2013-02-28 10:22:00,28.0,-99.9,-100.00,North,8,10.0,21.0,-999,-99.99,,,-99.99,,2013-02-28 15:22:00,
2013-02-28 10:32:00,28.0,-99.9,-100.00,North,8,10.0,21.0,-999,-99.99,,,-99.99,,2013-02-28 15:32:00,
2013-02-28 10:40:00,27.0,-99.9,-100.00,NNE,15,16.0,25.0,-999,-99.99,,,-99.99,,2013-02-28 15:40:00,
2013-02-28 11:02:00,27.0,-99.9,-100.00,NNE,15,16.0,25.0,-999,-99.99,,,-99.99,,2013-02-28 16:02:00,
2013-02-28 11:12:00,27.0,-99.9,-100.00,NNE,15,16.0,25.0,-999,-99.99,,,-99.99,,2013-02-28 16:12:00,
2013-02-28 11:22:00,27.0,-99.9,-100.00,NNE,15,16.0,25.0,-999,-99.99,,,-99.99,,2013-02-28 16:22:00,
2013-02-28 11:32:00,27.0,-99.9,-100.00,NNE,15,16.0,25.0,-999,-99.99,,,-99.99,,2013-02-28 16:32:00,
2013-02-28 11:40:00,28.0,-99.9,-100.00,NNE,16,16.0,23.0,-999,-99.99,,,-99.99,,2013-02-28 16:40:00,
2013-02-28 12:02:00,28.0,-99.9,-100.00,NNE,16,16.0,23.0,-999,-99.99,,,-99.99,,2013-02-28 17:02:00,
2013-02-28 12:12:00,28.0,-99.9,-100.00,NNE,16,16.0,23.0,-999,-99.99,,,-99.99,,2013-02-28 17:12:00,
2013-02-28 12:22:00,28.0,-99.9,-100.00,NNE,16,16.0,23.0,-999,-99.99,,,-99.99,,2013-02-28 17:22:00,
2013-02-28 12:33:00,28.0,-99.9,-100.00,NNE,16,16.0,23.0,-999,-99.99,,,-99.99,,2013-02-28 17:33:00,
2013-02-28 13:02:00,28.0,-99.9,-100.00,NNE,12,13.0,25.0,-999,-99.99,,,-99.99,,2013-02-28 18:02:00,
2013-02-28 13:12:00,28.0,-99.9,-100.00,NNE,12,13.0,25.0,-999,-99.99,,,-99.99,,2013-02-28 18:12:00,
2013-02-28 13:22:00,28.0,-99.9,-100.00,NNE,12,13.0,25.0,-999,-99.99,,,-99.99,,2013-02-28 18:22:00,
2013-02-28 13:32:00,28.0,-99.9,-100.00,NNE,12,13.0,29.0,-999,-99.99,,,-99.99,,2013-02-28 18:32:00,
2013-02-28 13:40:00,28.0,-99.9,-100.00,NNE,22,14.0,26.0,-999,-99.99,,,-99.99,,2013-02-28 18:40:00,
2013-02-28 13:43:00,28.0,-99.9,-100.00,NNE,12,13.0,29.0,-999,-99.99,,,-99.99,,2013-02-28 18:43:00,
2013-02-28 13:53:00,28.0,-99.9,-100.00,NNE,12,13.0,29.0,-999,-99.99,,,-99.99,,2013-02-28 18:53:00,
2013-02-28 14:02:00,28.0,-99.9,-100.00,NNE,22,14.0,26.0,-999,-99.99,,,-99.99,,2013-02-28 19:02:00,
2013-02-28 14:12:00,28.0,-99.9,-100.00,NNE,22,14.0,26.0,-999,-99.99,,,-99.99,,2013-02-28 19:12:00,
2013-02-28 14:22:00,28.0,-99.9,-100.00,NNE,22,14.0,26.0,-999,-99.99,,,-99.99,,2013-02-28 19:22:00,
2013-02-28 14:32:00,28.0,-99.9,-100.00,NNE,22,14.0,26.0,-999,-99.99,,,-99.99,,2013-02-28 19:32:00,
2013-02-28 15:02:00,27.0,-99.9,-100.00,NNE,24,13.0,27.0,-999,-99.99,,,-99.99,,2013-02-28 20:02:00,
2013-02-28 15:12:00,27.0,-99.9,-100.00,NNE,24,13.0,27.0,-999,-99.99,,,-99.99,,2013-02-28 20:12:00,
2013-02-28 15:22:00,27.0,-99.9,-100.00,NNE,24,13.0,27.0,-999,-99.99,,,-99.99,,2013-02-28 20:22:00,
2013-02-28 15:32:00,27.0,-99.9,-100.00,NNE,15,13.0,27.0,-999,-99.99,,,-99.99,,2013-02-28 20:32:00,
2013-02-28 15:40:00,27.0,-99.9,-100.00,North,11,14.0,27.0,-999,-99.99,,,-99.99,,2013-02-28 20:40:00,
2013-02-28 15:42:00,27.0,-99.9,-100.00,NNE,15,13.0,27.0,-999,-99.99,,,-99.99,,2013-02-28 20:42:00,
2013-02-28 15:52:00,27.0,-99.9,-100.00,NNE,15,13.0,27.0,-999,-99.99,,,-99.99,,2013-02-28 20:52:00,
2013-02-28 16:02:00,27.0,-99.9,-100.00,North,11,14.0,27.0,-999,-99.99,,,-99.99,,2013-02-28 21:02:00,
2013-02-28 16:11:00,27.0,-99.9,-100.00,North,11,14.0,27.0,-999,-99.99,,,-99.99,,2013-02-28 21:11:00,
2013-02-28 16:22:00,27.0,-99.9,-100.00,North,11,14.0,27.0,-999,-99.99,,,-99.99,,2013-02-28 21:22:00,
2013-02-28 16:32:00,27.0,-99.9,-100.00,North,11,14.0,27.0,-999,-99.99,,,-99.99,,2013-02-28 21:32:00,
2013-02-28 16:52:00,27.0,-99.9,-100.00,North,11,12.0,27.0,-999,-99.99,,,-99.99,,2013-02-28 21:52:00,
2013-02-28 17:02:00,27.0,-99.9,-100.00,NNE,14,12.0,17.0,-999,-99.99,,,-99.99,,2013-02-28 22:02:00,
2013-02-28 17:12:00,27.0,-99.9,-100.00,NNE,14,12.0,17.0,-999,-99.99,,,-99.99,,2013-02-28 22:12:00,
2013-02-28 17:22:00,27.0,-99.9,-100.00,NNE,14,12.0,17.0,-999,-99.99,,,-99.99,,2013-02-28 22:22:00,
2013-02-28 17:32:00,27.0,-99.9,-100.00,North,11,12.0,27.0,-999,-99.99,,,-99.99,,2013-02-28 22:32:00,
2013-02-28 17:42:00,27.0,-99.9,-100.00,North,11,12.0,27.0,-999,-99.99,,,-99.99,,2013-02-28 22:42:00,
2013-02-28 17:52:00,27.0,-99.9,-100.00,North,11,12.0,27.0,-999,-99.99,,,-99.99,,2013-02-28 22:52:00,
2013-02-28 18:02:00,26.0,-99.9,-100.00,North,9,10.0,18.0,-999,-99.99,,,-99.99,,2013-02-28 23:02:00,
2013-02-28 18:12:00,26.0,-99.9,-100.00,North,9,10.0,18.0,-999,-99.99,,,-99.99,,2013-02-28 23:12:00,
2013-02-28 18:22:00,26.0,-99.9,-100.00,North,9,10.0,18.0,-999,-99.99,,,-99.99,,2013-02-28 23:22:00,
2013-02-28 18:32:00,26.0,-99.9,-100.00,North,9,10.0,18.0,-999,-99.99,,,-99.99,,2013-02-28 23:32:00,
2013-02-28 18:40:00,26.0,-99.9,-100.00,NNE,14,13.0,26.0,-999,-99.99,,,-99.99,,2013-02-28 23:40:00,
2013-02-28 18:42:00,26.0,-99.9,-100.00,North,8,13.0,24.0,-999,-99.99,,,-99.99,,2013-02-28 23:42:00,
2013-02-28 18:53:00,26.0,-99.9,-100.00,North,8,13.0,24.0,-999,-99.99,,,-99.99,,2013-02-28 23:53:00,
2013-02-28 19:02:00,26.0,-99.9,-100.00,NNE,14,13.0,26.0,-999,-99.99,,,-99.99,,2013-03-01 00:02:00,
2013-02-28 19:12:00,26.0,-99.9,-100.00,NNE,14,13.0,26.0,-999,-99.99,,,-99.99,,2013-03-01 00:12:00,
2013-02-28 19:23:00,26.0,-99.9,-100.00,NNE,14,13.0,26.0,-999,-99.99,,,-99.99,,2013-03-01 00:23:00,
2013-02-28 19:32:00,26.0,-99.9,-100.00,NNE,14,13.0,26.0,-999,-99.99,,,-99.99,,2013-03-01 00:32:00,
2013-02-28 19:40:00,26.0,-99.9,-100.00,North,359,6.0,18.0,-999,-99.99,,,-99.99,,2013-03-01 00:40:00,
2013-02-28 20:02:00,26.0,-99.9,-100.00,North,359,6.0,18.0,-999,-99.99,,,-99.99,,2013-03-01 01:02:00,
2013-02-28 20:11:00,26.0,-99.9,-100.00,North,359,6.0,18.0,-999,-99.99,,,-99.99,,2013-03-01 01:11:00,
2013-02-28 20:22:00,26.0,-99.9,-100.00,North,359,6.0,18.0,-999,-99.99,,,-99.99,,2013-03-01 01:22:00,
2013-02-28 20:32:00,26.0,-99.9,-100.00,North,359,6.0,18.0,-999,-99.99,,,-99.99,,2013-03-01 01:32:00,
2013-02-28 20:40:00,25.0,-99.9,-100.00,NNE,27,8.0,18.0,-999,-99.99,,,-99.99,,2013-03-01 01:40:00,
2013-02-28 21:02:00,25.0,-99.9,-100.00,NNE,27,8.0,18.0,-999,-99.99,,,-99.99,,2013-03-01 02:02:00,
2013-02-28 21:11:00,25.0,-99.9,-100.00,NNE,27,8.0,18.0,-999,-99.99,,,-99.99,,2013-03-01 02:11:00,
2013-02-28 21:22:00,25.0,-99.9,-100.00,NNE,27,8.0,18.0,-999,-99.99,,,-99.99,,2013-03-01 02:22:00,
2013-02-28 21:32:00,25.0,-99.9,-100.00,NNE,27,8.0,18.0,-999,-99.99,,,-99.99,,2013-03-01 02:32:00,
2013-02-28 21:40:00,23.0,-99.9,-100.00,NNE,13,7.0,15.0,-999,-99.99,,,-99.99,,2013-03-01 02:40:00,
2013-02-28 22:02:00,23.0,-99.9,-100.00,NNE,13,7.0,15.0,-999,-99.99,,,-99.99,,2013-03-01 03:02:00,
2013-02-28 22:12:00,23.0,-99.9,-100.00,NNE,13,7.0,15.0,-999,-99.99,,,-99.99,,2013-03-01 03:12:00,
2013-02-28 22:22:00,23.0,-99.9,-100.00,NNE,13,7.0,15.0,-999,-99.99,,,-99.99,,2013-03-01 03:22:00,
2013-02-28 22:32:00,23.0,-99.9,-100.00,NNE,13,7.0,15.0,-999,-99.99,,,-99.99,,2013-03-01 03:32:00,
2013-02-28 22:40:00,23.0,-99.9,-100.00,NNE,21,8.0,18.0,-999,-99.99,,,-99.99,,2013-03-01 03:40:00,
2013-02-28 23:02:00,23.0,-99.9,-100.00,NNE,21,8.0,18.0,-999,-99.99,,,-99.99,,2013-03-01 04:02:00,
2013-02-28 23:12:00,23.0,-99.9,-100.00,NNE,21,8.0,18.0,-999,-99.99,,,-99.99,,2013-03-01 04:12:00,
2013-02-28 23:22:00,23.0,-99.9,-100.00,NNE,21,8.0,18.0,-999,-99.99,,,-99.99,,2013-03-01 04:22:00,
2013-02-28 23:32:00,23.0,-99.9,-100.00,NNE,21,8.0,18.0,-999,-99.99,,,-99.99,,2013-03-01 04:32:00,
2013-02-28 23:40:00,22.0,-99.9,-100.00,NNE,12,11.0,22.0,-999,-99.99,,,-99.99,,2013-03-01 04:40:00,